This is the latest recevied weather packets stored in our database for station/object DL4MGC-10. If no packets are shown the sender has not sent any weather packets the latest 10 day(s).
| Time | Temp. | Humidity | Pressure | Rain* | Wind** | Luminosity | Snow |
|---|---|---|---|---|---|---|---|
| 1788198110 | 23.89° C | 54% | 1017.5 hPa | - | - | - | - |
| 1788197210 | 24.44° C | 52% | 1017.3 hPa | - | - | - | - |
| 1788196310 | 25° C | 51% | 1017.1 hPa | - | - | - | - |
| 1788195410 | 24.44° C | 50% | 1017.1 hPa | - | - | - | - |
| 1788194510 | 25.56° C | 48% | 1016.9 hPa | - | - | - | - |
| 1788193610 | 25.56° C | 49% | 1016.8 hPa | - | - | - | - |
| 1788192710 | 25.56° C | 52% | 1016.7 hPa | - | - | - | - |
| 1788191810 | 26.67° C | 52% | 1016.7 hPa | - | - | - | - |
| 1788190909 | 26.67° C | 50% | 1016.8 hPa | - | - | - | - |
| 1788190009 | 26.67° C | 50% | 1016.7 hPa | - | - | - | - |
| 1788189109 | 27.22° C | 49% | 1016.9 hPa | - | - | - | - |
| 1788188209 | 26.67° C | 50% | 1017 hPa | - | - | - | - |
| 1788187309 | 27.22° C | 49% | 1017 hPa | - | - | - | - |
| 1788186409 | 26.67° C | 49% | 1017.2 hPa | - | - | - | - |
| 1788185509 | 27.22° C | 49% | 1017.2 hPa | - | - | - | - |
| 1788184609 | 28.33° C | 49% | 1017.3 hPa | - | - | - | - |
| 1788183709 | 27.22° C | 50% | 1017.2 hPa | - | - | - | - |
| 1788182808 | 26.11° C | 50% | 1017.3 hPa | - | - | - | - |
| 1788181908 | 26.67° C | 49% | 1017.4 hPa | - | - | - | - |
| 1788181008 | 26.11° C | 49% | 1017.4 hPa | - | - | - | - |
| 1788180108 | 26.67° C | 51% | 1017.4 hPa | - | - | - | - |
| 1788179208 | 26.67° C | 51% | 1017.5 hPa | - | - | - | - |
| 1788178308 | 26.67° C | 52% | 1017.5 hPa | - | - | - | - |
| 1788177408 | 26.11° C | 53% | 1017.5 hPa | - | - | - | - |
| 1788176508 | 26.67° C | 54% | 1017.7 hPa | - | - | - | - |
* Rain since midnight (hover to see other rain measurements)
** Current wind speed in m/s (hover to see current wind gust speed)